EHI
0 0 0 0 0 0 0 1 2 2 1 0 0 1 4 6 8 8 6 4 3 5 10 20 30 37 37 32 30 29 22 14 13 14 12 8 4 3 5 7 9 10 10 10
0 0 0 0 0 0 0 1 2 3 1 1 1 3 5 8 10 10 8 5 4 6 13 23 33 42 45 42 38 35 29 21 16 15 12 8 4 4 5 7 9 9 9 9
0 0 0 0 0 0 0 1 3 3 2 2 3 4 6 10 12 13 11 8 7 8 13 23 36 47 54 53 47 43 39 31 21 17 15 11 8 6 7 8 9 9 9 9
0 0 0 0 0 0 0 1 2 2 2 2 3 3 5 8 12 13 13 14 13 12 16 25 37 48 56 57 54 50 46 39 29 24 22 18 13 9 8 9 10 11 11 10
0 0 0 0 0 0 0 1 1 1 1 2 2 2 3 6 9 12 14 17 19 19 23 29 38 46 53 59 60 56 52 46 39 34 31 26 19 13 11 11 12 13 12 11
0 0 0 0 0 0 0 0 0 0 0 1 1 2 2 4 7 11 13 16 20 24 29 33 39 45 51 59 64 62 57 51 46 43 39 33 27 21 18 17 16 15 13 11
0 0 0 0 0 0 0 0 0 0 0 0 0 2 4 6 9 13 15 16 20 26 32 36 41 47 53 61 66 65 62 57 52 49 45 39 33 29 26 23 21 19 16 14
0 0 0 0 0 0 0 0 0 0 0 0 1 4 6 9 13 16 17 19 22 27 32 38 43 49 55 61 65 67 66 62 57 53 49 44 37 31 28 28 27 25 21 18
0 0 0 0 0 0 0 0 0 0 0 0 1 4 7 11 14 16 17 20 22 24 29 37 43 48 53 58 61 64 66 64 60 55 51 44 38 33 30 29 29 27 24 21
0 0 0 0 0 0 0 0 0 0 0 0 1 3 6 10 13 15 16 19 20 20 24 34 42 46 51 54 56 58 61 62 59 56 50 42 37 34 31 28 27 26 24 22
0 0 0 0 0 0 0 0 0 0 0 0 1 3 5 9 14 17 18 18 19 20 23 33 42 48 52 54 56 57 57 59 59 56 50 43 38 35 32 29 26 25 23 21
0 0 0 0 0 0 0 0 0 0 0 0 1 3 6 10 16 21 22 23 25 26 29 36 45 52 56 59 61 60 59 58 59 58 53 46 40 38 36 31 28 26 23 20
0 0 0 0 0 0 0 0 0 0 0 0 0 3 8 15 22 26 30 32 35 36 37 41 46 52 58 63 65 63 62 60 60 60 57 50 44 41 38 34 30 27 23 19
0 0 0 0 0 0 0 0 0 0 0 0 1 3 9 17 25 32 38 39 40 41 42 43 44 47 53 58 59 58 57 56 55 56 57 52 46 42 39 36 32 29 24 20
0 0 0 0 0 0 0 0 0 0 0 0 2 5 10 17 25 33 38 39 38 38 40 41 40 40 43 47 48 47 46 44 45 48 51 49 45 41 39 38 36 32 26 21
0 0 0 0 0 0 0 0 0 1 2 2 4 7 11 18 26 32 36 36 35 34 35 36 36 36 36 39 41 41 39 37 39 43 44 44 42 40 40 40 38 33 25 20
0 0 0 0 0 0 0 0 2 4 5 6 8 12 16 22 28 33 37 38 35 34 34 35 36 35 34 35 37 40 40 39 41 43 44 44 43 41 40 40 38 31 24 20
0 0 0 0 0 0 0 0 2 5 8 12 16 21 25 29 32 35 37 37 34 33 35 38 38 36 34 34 36 37 38 40 40 42 43 44 43 41 38 38 37 32 26 22
0 0 0 0 0 0 0 1 2 5 11 16 21 26 29 31 34 34 32 33 32 32 36 39 38 38 37 36 34 32 32 33 34 35 37 38 38 36 34 34 34 32 28 24
0 0 0 0 0 0 1 2 2 5 12 17 19 21 23 27 30 30 30 32 34 36 38 39 37 37 38 35 30 27 26 26 26 26 28 29 30 31 31 30 29 29 27 23
0 0 0 0 0 0 2 3 2 4 10 15 16 15 17 21 25 30 33 36 37 38 38 37 36 35 33 29 26 24 24 25 24 21 21 23 24 26 27 26 25 24 21 18
0 0 0 0 0 1 3 5 4 4 9 13 13 14 15 18 25 33 38 38 37 35 34 33 32 30 27 24 24 24 23 22 21 19 18 18 19 20 23 23 22 19 17 16
0 0 1 1 1 2 4 6 6 8 11 13 13 15 17 20 28 35 38 37 34 31 28 28 27 25 21 20 21 19 17 16 16 15 15 14 14 16 18 18 18 16 14 13
0 1 2 4 5 6 7 8 9 12 14 14 15 17 19 22 29 35 35 33 30 28 26 25 24 21 17 14 13 11 10 10 11 11 10 10 10 11 12 13 12 12 11 10
1 2 3 5 7 8 8 8 10 14 16 15 16 18 21 24 29 32 32 29 27 25 24 24 22 18 13 10 8 6 6 7 8 8 7 6 5 6 7 7 7 6 6 6
1 2 4 4 4 5 6 7 10 13 15 15 17 20 23 26 29 30 29 27 25 24 22 22 21 15 10 8 7 6 6 7 7 7 6 4 2 3 4 4 4 3 3 3
Wind_Speed
1 3 4 8 7 7 4 2 3 4 6 6 7 8 11 12 11 11 10 10 11 10 9 10 10 10 9 8 7 7 7 5 4 2 2 2 2 1 1 2 3 3 3 3
3 4 10 7 5 3 2 1 1 1 4 5 5 4 7 10 12 13 13 12 12 10 9 10 9 9 9 9 8 7 7 6 5 3 3 2 2 2 2 1 2 3 3 3
7 8 5 5 5 3 3 4 4 4 3 5 6 1 2 5 5 7 9 10 11 14 14 13 11 10 9 9 9 8 7 6 5 4 3 2 1 1 1 1 1 2 3 3
6 8 4 4 5 4 4 4 5 6 6 2 4 3 5 5 6 9 10 10 11 12 12 12 12 11 11 10 9 7 7 6 5 5 4 4 3 3 3 2 2 2 3 3
6 4 5 6 7 5 5 4 5 5 4 2 1 4 5 3 7 11 12 13 13 12 13 14 13 13 12 11 9 8 7 6 6 5 6 5 4 3 2 2 2 2 2 3
7 5 5 7 6 5 3 5 6 6 5 0 4 5 5 6 12 12 11 11 12 13 13 12 11 10 9 9 9 8 8 7 6 6 6 6 6 4 3 3 3 2 2 2
5 6 4 3 2 1 5 8 5 4 3 5 4 3 7 8 10 11 12 11 11 12 12 11 11 10 10 10 10 9 9 8 7 7 6 6 6 6 5 4 4 3 2 2
3 6 5 4 6 5 4 11 10 6 5 4 1 4 6 5 7 8 9 10 10 10 11 12 13 12 12 11 10 10 10 8 7 7 6 5 5 4 3 4 4 4 3 3
6 7 6 5 5 8 4 5 10 8 3 1 2 2 4 1 2 5 7 7 9 9 11 11 12 11 11 11 11 11 10 8 7 7 6 5 5 5 4 4 3 3 3 3
6 4 5 4 2 2 7 7 6 6 5 1 3 2 3 2 2 4 6 7 7 8 9 10 10 11 10 10 9 9 9 8 7 6 6 5 5 5 4 3 3 3 3 3
4 3 5 1 4 5 3 4 6 5 6 7 3 5 5 7 6 6 5 5 6 6 7 8 7 7 7 7 7 7 7 6 6 6 5 5 4 4 4 4 4 4 3 3
3 5 2 5 5 5 6 6 8 6 3 5 5 6 4 5 6 6 6 5 6 6 5 6 7 6 6 6 7 7 6 6 6 6 5 5 4 4 3 3 3 3 3 2
4 6 2 5 7 3 2 3 6 7 6 5 5 6 3 3 5 6 7 7 7 6 6 6 7 7 5 5 6 5 5 5 5 5 5 4 3 3 3 3 3 2 2 2
6 5 7 8 7 4 2 1 3 7 5 4 6 5 2 3 6 6 7 7 7 7 7 7 6 5 5 4 5 5 4 4 4 5 5 4 3 3 3 3 2 2 2 2
6 3 2 4 3 1 1 1 1 4 8 8 7 7 8 7 8 8 8 8 8 6 6 7 6 5 5 5 5 5 4 3 3 4 4 4 3 3 3 3 3 3 3 2
5 3 2 2 2 2 1 2 2 3 5 6 6 3 4 5 7 8 8 10 9 6 6 6 6 6 5 5 5 5 4 4 4 4 4 4 3 3 3 3 3 3 3 2
3 4 3 2 3 3 3 4 3 2 2 7 7 6 6 6 8 10 10 10 9 7 7 7 6 5 5 5 5 5 5 5 5 4 4 4 4 4 3 3 4 3 3 3
5 4 3 1 3 2 8 4 2 4 1 4 5 6 9 8 7 6 9 11 9 8 7 7 6 6 5 4 4 5 5 5 5 4 3 3 4 4 3 3 3 3 3 3
6 7 4 3 2 4 6 3 0 3 0 1 7 8 8 9 9 4 4 7 8 7 7 6 5 6 6 6 6 7 6 5 5 4 3 3 3 4 4 3 3 3 3 3
5 6 5 4 3 5 7 5 2 6 1 2 7 10 10 8 6 3 4 7 8 7 7 6 6 7 7 5 6 7 5 5 4 3 3 3 3 3 3 3 4 4 4 4
4 3 4 4 3 5 6 6 3 5 5 3 5 9 9 6 6 7 7 8 9 9 9 8 8 7 5 5 7 7 6 4 3 3 4 3 3 3 3 3 3 4 5 5
4 3 3 4 3 6 6 3 3 5 3 3 4 6 7 7 9 9 9 9 10 10 9 8 8 6 5 5 7 7 5 3 4 5 4 4 3 3 3 4 3 3 4 5
3 6 5 6 7 5 1 2 2 3 4 3 4 5 8 10 9 8 8 9 9 9 8 7 8 7 5 5 6 6 4 4 5 5 5 4 4 4 4 4 4 3 3 3
3 1 3 1 2 2 1 2 2 3 4 4 5 7 9 10 10 9 8 8 7 7 7 7 8 7 5 4 5 5 4 5 6 5 4 3 4 5 5 4 3 3 3 3
3 1 1 1 1 3 4 3 3 5 6 7 7 6 7 10 10 9 8 8 7 7 6 6 7 7 5 5 4 4 4 5 6 5 4 4 4 4 5 5 4 3 2 3
2 3 4 4 4 2 2 1 4 6 5 7 8 6 6 8 9 8 7 7 7 7 7 7 7 6 5 5 4 3 4 5 5 4 4 3 3 3 4 4 5 9 7 8
Wind_Direction
303 95 217 225 205 203 200 186 203 199 157 124 136 152 173 174 175 175 175 175 175 176 170 163 160 159 156 156 156 158 161 169 155 139 138 143 169 179 185 190 178 169 171 163
24 248 233 227 236 234 220 176 178 130 129 118 140 162 180 179 183 180 178 178 175 169 165 167 165 165 165 166 165 163 169 171 169 166 166 170 174 184 188 194 178 180 180 180
204 238 232 222 245 247 251 179 171 152 68 74 106 42 196 195 176 177 181 178 175 175 174 173 173 174 172 172 173 175 177 173 175 169 151 143 114 100 139 174 206 206 188 187
239 246 233 225 237 200 244 205 151 140 117 197 149 172 254 194 188 189 191 181 183 181 177 176 175 177 179 179 175 172 174 175 178 166 159 166 178 197 204 198 203 215 206 197
250 236 214 224 231 199 218 178 137 133 128 99 122 136 261 173 192 205 197 188 186 184 181 182 183 182 181 178 176 177 175 179 181 177 177 179 191 199 203 194 195 213 222 212
246 253 207 211 230 199 171 74 51 58 72 47 221 151 246 205 200 199 198 189 186 183 183 184 183 176 178 177 178 179 178 186 187 185 184 186 193 193 192 201 198 209 218 230
295 284 260 194 191 292 106 93 49 13 18 249 236 156 238 223 198 185 185 187 189 182 178 175 175 175 177 179 182 182 182 189 190 189 191 195 195 189 192 199 199 201 209 221
214 271 254 205 176 178 168 137 152 177 206 261 310 199 250 229 190 177 175 175 176 174 178 182 182 180 181 181 180 181 185 189 188 190 196 195 190 189 196 197 192 199 206 216
188 247 272 223 178 153 154 166 163 139 160 113 287 279 319 358 122 156 156 156 174 179 181 185 185 181 182 182 183 183 184 185 187 188 186 185 183 188 196 194 190 195 202 208
172 230 275 252 107 157 160 154 102 116 141 184 286 249 226 225 185 167 163 167 172 177 181 183 184 183 183 181 182 181 179 182 183 185 187 191 192 194 192 184 191 194 196 197
166 172 297 356 174 194 143 117 112 123 147 149 193 267 226 186 184 170 160 158 157 157 170 171 171 173 169 165 168 170 174 172 175 182 185 185 189 194 191 192 199 198 198 191
161 130 233 254 248 189 162 165 140 144 181 147 152 256 271 165 155 145 133 124 122 120 133 143 143 137 145 154 154 155 161 165 174 176 175 180 183 188 191 195 199 191 191 190
131 112 90 339 337 352 132 148 142 132 121 139 151 250 292 112 104 111 109 104 105 97 95 99 110 122 136 143 139 143 158 163 165 161 164 168 171 178 190 193 192 180 171 169
110 111 153 187 213 225 238 256 136 122 138 175 195 202 244 138 119 113 113 113 110 112 114 108 107 114 119 120 127 138 149 151 151 151 151 158 170 173 179 175 160 147 145 143
93 118 169 200 218 176 179 241 181 155 172 171 201 189 202 185 153 143 127 117 110 111 115 113 114 124 127 125 127 136 140 137 148 146 150 161 161 149 139 133 128 126 125 131
71 104 69 345 351 29 350 281 205 187 169 160 151 197 201 161 128 127 130 125 124 135 133 126 128 129 130 138 135 134 133 140 142 141 150 145 138 134 135 135 127 121 115 110
69 93 82 299 327 42 300 255 188 174 172 151 170 198 160 147 144 147 142 134 134 145 141 139 138 137 136 140 141 143 141 132 126 127 128 131 141 140 142 139 126 127 125 114
123 99 113 89 57 215 245 262 142 140 130 143 144 152 152 151 148 137 136 139 146 144 135 135 134 128 124 122 118 119 112 110 110 105 102 107 117 125 121 120 127 131 120 116
137 128 113 113 141 278 299 316 61 131 350 156 136 134 127 117 90 76 125 132 139 141 136 130 124 119 110 106 109 107 107 108 106 109 109 103 111 116 118 129 132 122 119 110
85 105 115 124 145 221 254 280 279 103 6 278 140 141 140 126 122 183 157 130 125 120 117 113 108 101 98 99 101 98 98 100 105 110 102 101 115 124 130 131 122 113 111 108
62 69 125 145 183 255 269 294 51 115 218 225 150 146 145 154 165 160 139 129 128 122 115 110 105 101 103 108 104 100 96 99 110 99 88 80 84 106 117 113 112 117 114 110
152 146 169 144 180 249 300 10 116 202 206 152 140 141 130 125 121 127 127 127 123 118 115 114 110 103 96 97 103 99 97 98 90 84 80 74 67 77 91 100 99 105 113 111
166 178 177 180 208 231 259 143 196 154 134 129 127 127 126 123 128 129 126 125 125 125 122 115 112 105 93 88 100 105 99 95 91 82 74 69 67 65 73 91 102 102 103 108
315 46 120 115 278 287 19 67 61 108 123 119 122 125 126 129 134 130 130 130 125 119 118 116 112 108 99 90 90 102 101 100 96 93 85 78 79 72 65 70 80 93 100 110
252 5 80 155 281 12 16 43 74 74 81 86 88 101 122 128 132 133 133 133 129 121 116 118 119 117 113 103 94 94 104 109 103 100 97 91 87 87 77 70 61 75 75 119
253 176 162 211 221 177 247 295 93 90 95 106 102 89 104 123 130 128 130 134 132 127 123 121 118 118 114 107 99 93 103 115 116 109 102 101 101 96 96 95 71 51 65 74